GW6683 Weather Reports


time (UTC)temp
C
wind
direction
speed
KPH
gust
KPH
rain 1hr
cm
rain 24hr
cm
rain mn
cm
humidity
%
barometer
mb
20260509223130 29 208 3.2 4.8 0.00 0.13 0.13 87 1013.6
20260509222626 29 73 0.0 0.0 0.00 0.13 0.13 86 1013.6
20260509222121 29 73 3.2 4.8 0.00 0.13 0.13 86 1013.6
20260509221618 29 73 3.2 4.8 0.00 0.13 0.13 86 1013.6
20260509221114 29 80 4.8 8.0 0.00 0.13 0.13 85 1013.6
20260509220610 29 6 0.0 0.0 0.00 0.13 0.13 86 1013.6
20260509220107 29 6 0.0 0.0 0.00 0.13 0.13 85 1013.6
20260509215601 30 50 1.6 6.4 0.00 0.13 0.13 84 1013.6
20260509215059 29 117 0.0 0.0 0.00 0.13 0.13 85 1013.2
20260509214556 29 117 0.0 3.2 0.00 0.13 0.13 86 1013.2
20260509214053 29 117 0.0 0.0 0.00 0.13 0.13 86 1013.2
20260509213549 29 117 0.0 4.8 0.00 0.13 0.13 86 1013.2
20260509213046 29 117 0.0 0.0 0.00 0.13 0.13 85 1013.2
20260509212543 29 117 0.0 0.0 0.00 0.13 0.13 85 1013.2
20260509212040 28 117 0.0 0.0 0.00 0.13 0.13 87 1013.2
20260509211535 28 117 0.0 0.0 0.00 0.13 0.13 86 1013.2
20260509211032 28 117 1.6 4.8 0.00 0.13 0.13 88 1013.2
20260509210529 28 117 0.0 0.0 0.00 0.13 0.13 86 1013.2
20260509210026 28 117 0.0 0.0 0.00 0.13 0.13 87 1013.2
20260509205520 28 117 0.0 0.0 0.00 0.13 0.13 88 1012.9
20260509205016 27 117 0.0 0.0 0.00 0.13 0.13 90 1012.9
20260509204513 27 117 0.0 0.0 0.00 0.13 0.13 92 1012.9
20260509204009 27 117 0.0 3.2 0.00 0.13 0.13 93 1012.9
20260509203505 26 73 3.2 8.0 0.00 0.13 0.13 92 1012.9
20260509203003 26 75 1.6 4.8 0.00 0.13 0.13 94 1012.9
20260509202458 26 338 0.0 0.0 0.00 0.13 0.13 95 1012.9
20260509201953 26 338 0.0 0.0 0.00 0.13 0.13 96 1012.9
20260509201454 26 338 0.0 0.0 0.00 0.13 0.13 96 1012.5
20260509200951 26 338 0.0 0.0 0.00 0.13 0.13 96 1012.5
20260509200446 26 127 1.6 4.8 0.00 0.13 0.13 97 1012.5
20260509195943 25 127 0.0 0.0 0.00 0.13 0.13 98 1012.5
20260509195438 25 131 1.6 6.4 0.00 0.13 0.13 99 1012.5
20260509194938 25 83 0.0 0.0 0.00 0.13 0.13 100 1012.5
20260509194434 25 83 0.0 0.0 0.00 0.13 0.13 99 1012.2
20260509193931 25 83 3.2 3.2 0.00 0.13 0.13 100 1012.2
20260509193430 25 83 1.6 4.8 0.00 0.13 0.13 100 1012.5
20260509192927 25 83 0.0 0.0 0.00 0.13 0.13 100 1012.5
20260509192423 25 83 0.0 0.0 0.00 0.13 0.13 100 1012.5
20260509191918 24 83 0.0 0.0 0.00 0.13 0.13 100 1012.5
20260509191414 24 83 0.0 0.0 0.00 0.13 0.13 100 1012.2
20260509190910 24 83 0.0 0.0 0.00 0.13 0.13 100 1012.2
20260509190408 24 83 0.0 0.0 0.00 0.13 0.13 100 1012.2
20260509185905 24 83 0.0 0.0 0.00 0.13 0.13 100 1012.2
20260509185402 24 83 0.0 0.0 0.00 0.13 0.13 100 1011.9
20260509184859 25 83 0.0 0.0 0.00 0.13 0.13 99 1011.9
20260509184355 25 83 0.0 0.0 0.00 0.13 0.13 99 1011.9
20260509183853 25 83 0.0 0.0 0.00 0.13 0.13 100 1011.9
20260509183347 25 83 0.0 0.0 0.00 0.13 0.13 100 1011.9
20260509182843 25 83 0.0 0.0 0.00 0.13 0.13 100 1011.9
20260509182341 25 83 0.0 0.0 0.00 0.10 0.10 100 1011.9
20260509181838 25 83 0.0 0.0 0.00 0.10 0.10 100 1011.9
20260509181335 25 83 0.0 0.0 1.19 0.08 0.08 100 1011.9
20260509180833 24 83 0.0 0.0 0.00 0.05 0.05 100 1011.9
20260509180328 24 83 0.0 0.0 0.00 0.03 0.03 100 1011.9
20260509175825 24 83 1.6 3.2 0.00 0.03 0.03 100 1011.9
20260509175322 24 83 0.0 0.0 0.00 0.03 0.03 100 1011.9
20260509174818 24 83 0.0 0.0 0.00 0.03 0.03 100 1011.9
20260509174313 24 83 0.0 1.6 0.00 0.03 0.03 100 1011.9
20260509173810 24 83 0.0 0.0 0.00 0.03 0.03 100 1011.9
20260509173305 24 83 0.0 0.0 0.00 0.03 0.03 100 1011.9
20260509172801 24 83 0.0 0.0 0.00 0.03 0.03 100 1011.9
20260509172258 24 83 0.0 0.0 0.00 0.03 0.03 100 1011.9
20260509171754 24 83 0.0 0.0 0.00 0.03 0.03 100 1011.9
20260509171250 24 83 0.0 0.0 0.00 0.03 0.03 99 1011.9
20260509170747 24 83 0.0 0.0 0.00 0.03 0.03 99 1011.5
20260509170243 24 83 0.0 0.0 0.00 0.03 0.03 99 1011.5
20260509165742 25 83 0.0 0.0 0.00 0.03 0.03 99 1011.5
20260509165237 25 83 0.0 0.0 0.00 0.03 0.03 99 1011.5
20260509164733 25 83 0.0 0.0 0.00 0.03 0.03 99 1011.5
20260509164229 25 83 0.0 0.0 0.00 0.03 0.03 99 1011.5
20260509163726 25 83 0.0 0.0 0.00 0.03 0.03 99 1011.5
20260509163223 25 83 0.0 0.0 0.00 0.03 0.03 99 1011.5
20260509162720 25 83 0.0 0.0 0.00 0.03 0.03 99 1011.5
20260509162215 25 83 0.0 0.0 0.00 0.03 0.03 99 1011.5
20260509161711 25 83 0.0 0.0 0.00 0.03 0.03 99 1011.5
20260509161208 25 83 0.0 0.0 0.00 0.03 0.03 99 1011.5
20260509160703 25 83 0.0 3.2 0.00 0.03 0.03 99 1011.5
20260509160159 25 83 0.0 0.0 0.00 0.03 0.03 99 1011.5
20260509155655 25 83 0.0 0.0 0.00 0.03 0.03 99 1011.5
20260509155151 25 83 0.0 0.0 0.00 0.03 0.03 99 1011.9
20260509154647 25 83 0.0 0.0 0.00 0.03 0.03 99 1011.9
20260509154145 25 83 0.0 0.0 0.00 0.03 0.03 98 1011.9
20260509153641 25 83 0.0 3.2 0.00 0.03 0.03 98 1011.9
20260509153138 25 83 0.0 0.0 0.00 0.03 0.03 98 1011.9
20260509152634 25 83 0.0 0.0 0.00 0.03 0.03 98 1011.9
20260509152131 25 83 0.0 0.0 0.00 0.03 0.03 98 1011.9
20260509151628 25 83 0.0 0.0 0.00 0.03 0.03 98 1012.2
20260509151125 25 83 0.0 0.0 0.00 0.03 0.03 97 1012.2
20260509150623 25 83 0.0 0.0 0.00 0.03 0.03 97 1012.2
20260509150121 25 83 0.0 1.6 0.00 0.03 0.03 97 1012.2
20260509145616 25 83 0.0 0.0 0.00 0.03 0.03 96 1012.2
20260509145112 25 83 0.0 0.0 0.00 0.03 0.03 96 1012.2
20260509144609 25 66 3.2 9.7 0.00 0.03 0.03 96 1012.5
20260509144106 25 58 0.0 0.0 0.00 0.00 0.00 96 1012.5
20260509143603 25 58 0.0 0.0 0.00 0.00 0.00 96 1012.5
20260509143101 25 58 0.0 4.8 0.00 0.00 0.00 96 1012.5
20260509142556 25 57 1.6 4.8 0.00 0.00 0.00 96 1012.5
20260509142052 25 57 0.0 0.0 0.00 0.00 0.00 96 1012.5
20260509141548 25 57 1.6 4.8 0.00 0.00 0.00 97 1012.5
20260509141045 25 90 0.0 3.2 0.00 0.00 0.00 97 1012.5
20260509140542 25 90 0.0 0.0 0.00 0.00 0.00 97 1012.9
20260509140040 25 85 0.0 3.2 0.00 0.00 0.00 96 1012.5
20260509135537 25 51 0.0 4.8 0.00 0.00 0.00 97 1012.9
20260509135035 25 51 0.0 3.2 0.00 0.00 0.00 97 1012.9
20260509134531 25 51 0.0 3.2 0.00 0.00 0.00 97 1012.9
20260509134029 25 51 0.0 0.0 0.00 0.00 0.00 97 1012.5
20260509133525 25 51 0.0 1.6 0.00 0.00 0.00 97 1012.9
20260509133024 25 51 0.0 0.0 0.00 0.00 0.00 97 1012.9
20260509132522 25 51 1.6 3.2 0.00 0.00 0.00 96 1012.9
20260509132020 25 51 1.6 4.8 0.00 0.00 0.00 97 1012.9
20260509131515 25 51 0.0 1.6 0.00 0.00 0.00 96 1012.9
20260509131013 25 51 1.6 4.8 0.00 0.00 0.00 96 1012.9
20260509130508 25 51 0.0 3.2 0.00 0.00 0.00 96 1012.9
20260509130005 25 51 0.0 0.0 0.00 4.57 4.57 96 1012.9
20260509125501 25 51 3.2 8.0 0.00 4.57 4.57 96 1013.2
20260509124957 25 51 1.6 3.2 0.00 4.57 4.57 97 1012.9
20260509124454 26 51 3.2 8.0 0.00 4.57 4.57 96 1012.9
20260509123952 25 65 3.2 9.7 0.00 4.57 4.57 97 1012.9
20260509123449 25 70 0.0 3.2 0.00 4.57 4.57 97 1012.9
20260509122945 25 70 0.0 0.0 0.00 4.57 4.57 96 1012.9
20260509122442 25 70 1.6 6.4 0.00 4.57 4.57 97 1012.9
20260509121939 25 70 0.0 1.6 0.00 4.57 4.57 96 1012.9
20260509121436 25 70 0.0 0.0 0.00 4.57 4.57 96 1012.9
20260509120934 25 41 0.0 3.2 0.00 4.57 4.57 96 1013.2
20260509120432 25 41 0.0 3.2 0.00 4.57 4.57 97 1013.2
20260509115929 25 41 0.0 0.0 0.00 4.57 4.57 96 1013.2
20260509115426 25 41 0.0 0.0 0.00 4.57 4.57 97 1012.9
20260509114924 25 100 0.0 0.0 0.00 4.57 4.57 98 1013.2
20260509114422 25 100 0.0 0.0 0.00 4.57 4.57 97 1013.2
20260509113921 25 100 0.0 0.0 0.00 4.57 4.57 97 1013.2
20260509113418 25 100 0.0 0.0 0.00 4.57 4.57 97 1013.2
20260509112915 26 100 0.0 3.2 0.00 4.57 4.57 97 1013.2
20260509112412 26 100 0.0 3.2 0.00 4.57 4.57 97 1013.2
20260509111909 26 100 0.0 3.2 0.00 4.57 4.57 97 1013.2
20260509111406 26 100 0.0 4.8 0.00 4.57 4.57 97 1012.9
20260509110904 26 100 0.0 0.0 0.00 4.57 4.57 97 1012.9
20260509110359 26 100 0.0 0.0 0.00 4.57 4.57 97 1012.9
20260509105858 26 100 0.0 0.0 0.00 4.57 4.57 97 1012.9
20260509105356 26 100 1.6 3.2 0.00 4.57 4.57 97 1012.9
20260509104852 26 100 0.0 3.2 1.19 4.55 4.55 97 1012.9
20260509104349 26 100 0.0 0.0 0.00 4.55 4.55 97 1012.9
20260509103847 26 100 0.0 1.6 0.00 4.55 4.55 97 1012.9
20260509103344 26 100 0.0 0.0 0.00 4.55 4.55 97 1012.9
20260509102843 26 100 0.0 0.0 0.00 4.55 4.55 97 1012.5
20260509102339 26 100 1.6 6.4 0.00 4.55 4.55 97 1012.9
20260509101835 26 100 0.0 3.2 0.00 4.55 4.55 97 1012.9
20260509101331 26 100 0.0 0.0 0.00 4.55 4.55 97 1012.9
20260509100830 26 100 1.6 6.4 0.00 4.55 4.55 97 1012.9
20260509100326 26 50 1.6 3.2 0.00 4.55 4.55 97 1012.9
20260509095823 26 49 6.4 12.9 0.00 4.55 4.55 97 1012.5
20260509095320 26 67 0.0 0.0 0.00 4.55 4.55 97 1012.5
20260509094817 26 67 3.2 6.4 0.00 4.55 4.55 97 1012.5
20260509094314 26 61 4.8 9.7 0.00 4.55 4.55 97 1012.5
20260509093812 26 46 1.6 6.4 0.00 4.55 4.55 97 1012.5
20260509093309 26 49 0.0 3.2 0.00 4.55 4.55 98 1012.5
20260509092807 26 41 0.0 3.2 0.00 4.55 4.55 98 1012.5
20260509092306 26 66 1.6 3.2 0.00 4.52 4.52 98 1012.5
20260509091803 26 17 3.2 4.8 0.00 4.52 4.52 98 1012.5
20260509091259 26 17 0.0 0.0 0.00 4.52 4.52 98 1012.5
20260509090756 26 17 0.0 0.0 0.00 4.50 4.50 97 1012.5
20260509090253 26 17 0.0 0.0 0.00 4.50 4.50 98 1012.5
20260509085751 26 17 0.0 0.0 0.00 4.50 4.50 97 1012.2
20260509085248 26 17 0.0 0.0 0.00 4.50 4.50 97 1012.2
20260509084744 26 17 0.0 3.2 0.00 4.50 4.50 97 1012.2
20260509084241 26 91 0.0 3.2 0.00 4.47 4.47 97 1011.9
20260509083739 26 91 0.0 0.0 0.00 4.47 4.47 97 1011.9
20260509083236 26 81 6.4 12.9 0.00 4.47 4.47 97 1011.9
20260509082732 26 65 0.0 0.0 0.00 4.45 4.45 97 1011.9
20260509082229 26 52 3.2 8.0 0.00 4.45 4.45 97 1011.9
20260509081726 26 62 1.6 4.8 1.19 4.42 4.42 97 1011.9
20260509081223 26 105 0.0 3.2 0.00 4.42 4.42 98 1011.9
20260509080721 26 62 0.0 3.2 0.00 4.42 4.42 97 1011.9
20260509080219 26 62 1.6 4.8 0.00 4.39 4.39 97 1011.9
20260509075717 26 61 0.0 3.2 0.00 4.37 4.37 97 1011.9
20260509075214 26 78 0.0 6.4 0.00 4.37 4.37 97 1011.9
20260509074711 26 70 8.0 16.1 1.19 4.34 4.34 97 1011.5
20260509074208 26 56 6.4 11.3 0.00 4.34 4.34 97 1011.9
20260509073704 26 69 1.6 4.8 0.00 4.34 4.34 97 1011.5
20260509073201 26 59 3.2 8.0 0.00 4.32 4.32 97 1011.5
20260509072658 26 41 8.0 14.5 0.00 4.29 4.29 98 1011.5
20260509072155 26 68 3.2 8.0 0.00 4.27 4.27 97 1011.5
20260509071651 26 76 3.2 6.4 1.19 4.24 4.24 97 1011.5
20260509071148 26 68 4.8 11.3 0.00 4.11 4.11 97 1011.5
20260509070645 26 49 0.0 3.2 0.00 4.09 4.09 97 1011.5
20260509070141 26 54 3.2 6.4 1.19 4.06 4.06 97 1011.2
20260509065637 26 90 3.2 8.0 0.00 4.06 4.06 97 1011.5
20260509065133 26 118 1.6 3.2 0.00 4.06 4.06 97 1011.2
20260509064631 26 58 1.6 3.2 0.00 4.06 4.06 97 1011.2
20260509064129 26 62 4.8 9.7 0.00 4.06 4.06 98 1011.2
20260509063625 26 64 6.4 11.3 0.00 4.04 4.04 98 1011.2
20260509063122 26 70 0.0 4.8 0.00 4.04 4.04 97 1011.2
20260509062619 26 82 3.2 8.0 0.00 4.01 4.01 97 1011.2
20260509062116 26 61 4.8 12.9 0.00 3.91 3.91 97 1011.2
20260509061613 26 73 4.8 9.7 1.19 3.86 3.86 97 1010.8
20260509061111 26 51 6.4 11.3 0.00 3.86 3.86 98 1010.8
20260509060608 26 71 3.2 8.0 1.19 3.84 3.84 98 1010.8
20260509060103 26 83 0.0 0.0 1.19 3.73 3.73 98 1010.8
20260509055559 26 83 0.0 3.2 0.00 3.73 3.73 98 1010.8
20260509055055 26 83 0.0 3.2 0.00 3.71 3.71 97 1010.8
20260509054552 26 78 4.8 8.0 1.19 3.63 3.63 97 1011.2
20260509054050 26 71 0.0 0.0 0.00 3.58 3.58 98 1010.8
20260509053549 26 71 0.0 3.2 0.00 3.58 3.58 97 1010.8
20260509053045 26 80 0.0 0.0 0.00 3.53 3.53 97 1010.8
20260509052543 26 80 0.0 3.2 0.00 3.51 3.51 97 1010.8
20260509052041 26 100 0.0 4.8 0.00 3.48 3.48 97 1010.8
20260509051538 26 107 0.0 1.6 0.00 3.45 3.45 97 1010.8
20260509051035 26 107 0.0 0.0 1.19 3.40 3.40 97 1010.8
20260509050532 26 107 0.0 3.2 0.00 3.38 3.38 97 1010.8
20260509050028 26 63 3.2 6.4 0.00 3.35 3.35 96 1010.5
20260509045526 26 46 1.6 4.8 1.19 3.30 3.30 96 1010.5
20260509045023 26 46 1.6 3.2 0.00 3.28 3.28 96 1010.5
20260509044520 26 46 3.2 4.8 0.00 3.28 3.28 96 1010.5
20260509044018 26 46 0.0 0.0 0.00 3.28 3.28 96 1010.5
20260509043514 26 46 3.2 6.4 0.00 3.25 3.25 95 1010.5
20260509043010 26 46 3.2 4.8 0.00 3.23 3.23 95 1010.5
20260509042506 26 46 0.0 0.0 0.00 3.20 3.20 94 1010.5
20260509042002 26 46 0.0 0.0 0.00 3.17 3.17 95 1010.5
20260509041459 26 46 0.0 0.0 0.00 3.17 3.17 96 1010.5
20260509040957 26 46 0.0 0.0 0.00 3.17 3.17 96 1010.5
20260509040455 26 46 0.0 1.6 0.00 3.17 3.17 94 1010.5
20260509035951 26 46 0.0 0.0 0.00 3.17 3.17 96 1010.5
20260509035448 26 46 0.0 0.0 0.00 3.17 3.17 98 1010.8
20260509034945 26 46 3.2 6.4 0.00 3.17 3.17 97 1010.5
20260509034443 26 20 3.2 9.7 0.00 3.17 3.17 98 1010.5
20260509033939 26 20 3.2 3.2 0.00 3.17 3.17 99 1010.8
20260509033437 26 20 0.0 1.6 0.00 3.17 3.17 98 1010.8
20260509032933 26 20 0.0 0.0 0.00 3.15 3.15 98 1010.8
20260509032431 26 20 0.0 0.0 0.00 3.15 3.15 98 1011.2
20260509031928 26 20 0.0 3.2 0.00 3.15 3.15 99 1011.2
20260509031425 26 20 0.0 3.2 0.00 3.15 3.15 99 1010.8
20260509030923 26 20 0.0 0.0 0.00 3.15 3.15 99 1011.2
20260509030421 26 20 0.0 0.0 0.00 3.12 3.12 98 1011.2
20260509025918 26 20 0.0 0.0 0.00 3.12 3.12 99 1011.2
20260509025413 26 20 0.0 1.6 0.00 3.12 3.12 98 1011.2
20260509024908 26 20 0.0 0.0 0.00 3.10 3.10 99 1011.2
20260509024405 26 20 0.0 0.0 1.19 3.07 3.07 99 1011.2
20260509023902 26 20 0.0 0.0 0.00 3.07 3.07 99 1011.5
20260509023359 25 20 0.0 0.0 0.00 3.07 3.07 99 1011.5
20260509022855 25 20 1.6 3.2 0.00 3.05 3.05 99 1011.5
20260509022353 25 20 0.0 0.0 0.00 3.05 3.05 99 1011.5
20260509021850 25 20 0.0 0.0 0.00 3.02 3.02 99 1011.5
20260509021347 25 20 0.0 0.0 0.00 2.97 2.97 99 1011.5
20260509020844 25 20 1.6 4.8 0.00 2.97 2.97 99 1011.5
20260509020343 25 20 0.0 0.0 0.00 2.97 2.97 99 1011.5
20260509015840 25 20 1.6 4.8 0.00 2.95 2.95 99 1011.9
20260509015338 25 45 3.2 4.8 0.00 2.92 2.92 99 1011.9
20260509014834 25 334 3.2 9.7 0.00 2.87 2.87 99 1011.9
20260509014331 25 43 1.6 4.8 0.00 2.82 2.82 98 1012.2
20260509013828 25 284 0.0 4.8 1.19 2.79 2.79 99 1012.2
20260509013324 25 278 0.0 0.0 1.19 2.72 2.72 99 1012.2
20260509012820 25 278 0.0 0.0 0.00 2.72 2.72 99 1012.5
20260509012317 25 278 0.0 0.0 0.00 2.69 2.69 99 1012.5
20260509011815 25 278 0.0 0.0 2.39 2.62 2.62 99 1012.5
20260509011312 25 278 1.6 4.8 1.19 2.46 2.46 99 1012.5
20260509010810 25 125 0.0 0.0 4.80 2.21 2.21 98 1012.9
20260509010307 25 125 0.0 1.6 2.39 1.93 1.93 98 1012.9
20260509005804 25 225 3.2 6.4 1.19 1.85 1.85 98 1012.9
20260509005306 26 227 4.8 6.4 0.00 1.73 1.73 98 1012.9
20260509004801 26 227 1.6 8.0 5.99 1.37 1.37 97 1013.2
20260509004258 26 227 6.4 8.0 4.80 1.07 1.07 96 1013.2
20260509003756 27 346 0.0 0.0 3.61 0.71 0.71 97 1012.9
20260509003253 26 346 0.0 0.0 0.00 0.69 0.69 96 1012.9
20260509002750 27 346 0.0 0.0 0.00 0.69 0.69 95 1012.5
20260509002248 27 346 6.4 8.0 0.00 0.69 0.69 93 1012.9
20260509001746 27 94 1.6 3.2 1.19 0.51 0.51 92 1012.9
20260509001241 28 94 0.0 3.2 1.19 0.38 0.38 92 1012.9
20260509000739 28 94 0.0 0.0 0.00 0.38 0.38 91 1012.9
20260509000236 28 94 0.0 0.0 0.00 0.38 0.38 90 1012.9
20260508235733 28 94 0.0 0.0 0.00 0.38 0.38 89 1012.9
20260508235230 28 94 0.0 0.0 0.00 0.38 0.38 89 1012.9
20260508234727 28 94 0.0 3.2 0.00 0.36 0.36 91 1012.9
20260508234223 28 94 0.0 3.2 0.00 0.36 0.36 90 1012.9
20260508233723 28 94 1.6 3.2 0.00 0.36 0.36 91 1012.9
20260508233221 28 94 1.6 3.2 0.00 0.36 0.36 90 1012.9
20260508232718 28 94 0.0 1.6 0.00 0.36 0.36 89 1013.2
20260508232214 28 94 0.0 0.0 0.00 0.36 0.36 88 1013.2
20260508231712 28 94 0.0 0.0 0.00 0.36 0.36 88 1013.2
20260508231209 28 94 3.2 11.3 0.00 0.36 0.36 86 1013.2
20260508230706 28 94 0.0 0.0 0.00 0.36 0.36 87 1013.6
20260508230202 29 47 3.2 9.7 0.00 0.36 0.36 85 1013.6
20260508225700 30 88 0.0 4.8 0.00 0.36 0.36 84 1013.6
20260508225155 30 80 1.6 4.8 0.00 0.36 0.36 85 1013.6
20260508224654 30 58 1.6 4.8 0.00 0.36 0.36 88 1013.2
20260508224151 29 58 0.0 0.0 0.00 0.36 0.36 88 1013.2
20260508223649 29 58 0.0 0.0 0.00 0.36 0.36 89 1013.2